Montevideo, MN

1:30 AM CDT on July 29, 2016 (GMT -0500)
Montevideo-Chippewa County

Weather History for KMVE - November, 2011

Change the Weather History Date:

Monday, November 14, 2011

  Actual Average Record
Temperature  
Mean Temperature 42 °F -  
Max Temperature 51 °F 39 °F 70 °F (1990)
Min Temperature 33 °F 23 °F -4 °F (1959)
Degree Days  
Heating Degree Days 23    
Moisture  
Dew Point 19 °F    
Average Humidity 43    
Maximum Humidity 61    
Minimum Humidity 19    
Precipitation  
Precipitation 0.00 in - - ()
Sea Level Pressure  
Sea Level Pressure 29.45 in    
Wind  
Wind Speed 10 mph (WNW)    
Max Wind Speed 21 mph    
Max Gust Speed 30 mph    
Visibility 10 miles    
Events      
Averages and records for this station are not official NWS values.
T = Trace of Precipitation, MM = Missing Value Source: NWS Daily Summary

Daily Weather History Graph

Daily Weather History Graph

Search for Another Location

Airport or City:

Trip Planner

Search our weather history database for the weather conditions in past years. The results will help you decide how hot, cold, wet, or windy it might be!

Date:

Astronomy

Nov. 14, 2011 Rise Set
Actual Time 7:18 AM CST 4:55 PM CST
Civil Twilight 6:47 AM CST 5:26 PM CST
Nautical Twilight 6:11 AM CST 6:02 PM CST
Astronomical Twilight 5:36 AM CST 6:36 PM CST
Moon 8:00 PM CST (11/14) 10:41 AM CST (11/14)
Length of Visible Light 10h 39m
Length of Day
9h 36m
Waning Gibbous, 86% of the Moon is Illuminated
Nov 14
Waning Gibbous
Nov 18
Last Quarter
Nov 25
New
Dec 2
First Quarter
Dec 10
Full

Hourly Weather History & Observations

Time (CST) Temp. Windchill Dew Point Humidity Pressure Visibility Wind Dir Wind Speed Gust Speed Precip Events Conditions
12:14 AM 37.4 °F 29.3 °F 21.2 °F 52% 29.42 in 10.0 mi WSW 12.7 mph 17.3 mph N/A   Scattered Clouds
12:34 AM 37.4 °F 30.3 °F 21.2 °F 52% 29.41 in 10.0 mi WSW 10.4 mph - N/A   Clear
12:54 AM 37.4 °F 30.8 °F 21.2 °F 52% 29.40 in 10.0 mi WSW 9.2 mph - N/A   Clear
1:14 AM 37.4 °F 29.8 °F 21.2 °F 52% 29.39 in 10.0 mi WSW 11.5 mph - N/A   Clear
1:34 AM 37.4 °F 30.3 °F 19.4 °F 48% 29.39 in 10.0 mi WSW 10.4 mph - N/A   Clear
1:54 AM 37.4 °F 30.3 °F 19.4 °F 48% 29.39 in 10.0 mi WSW 10.4 mph - N/A   Clear
2:14 AM 35.6 °F 28.6 °F 19.4 °F 52% 29.39 in 10.0 mi WSW 9.2 mph - N/A   Clear
2:34 AM 33.8 °F 26.4 °F 19.4 °F 56% 29.39 in 10.0 mi WSW 9.2 mph - N/A   Clear
2:54 AM 33.8 °F 27.7 °F 19.4 °F 56% 29.40 in 10.0 mi WSW 6.9 mph - N/A   Clear
3:14 AM 33.8 °F 27.7 °F 19.4 °F 56% 29.40 in 10.0 mi WSW 6.9 mph - N/A   Clear
3:34 AM 35.6 °F 29.9 °F 19.4 °F 52% 29.40 in 10.0 mi West 6.9 mph - N/A   Clear
3:54 AM 35.6 °F 30.7 °F 19.4 °F 52% 29.39 in 10.0 mi West 5.8 mph - N/A   Clear
4:14 AM 33.8 °F 30.8 °F 19.4 °F 56% 29.40 in 10.0 mi WNW 3.5 mph - N/A   Clear
4:34 AM 35.6 °F 29.9 °F 19.4 °F 52% 29.40 in 10.0 mi West 6.9 mph - N/A   Clear
4:53 AM 35.6 °F 29.9 °F 19.4 °F 52% 29.39 in 10.0 mi West 6.9 mph - N/A   Clear
5:14 AM 35.6 °F 31.7 °F 19.4 °F 52% 29.40 in 10.0 mi West 4.6 mph - N/A   Clear
5:34 AM 35.6 °F 29.9 °F 19.4 °F 52% 29.39 in 10.0 mi West 6.9 mph - N/A   Clear
6:14 AM 35.6 °F 30.7 °F 19.4 °F 52% 29.40 in 10.0 mi West 5.8 mph - N/A   Clear
6:34 AM 35.6 °F 30.7 °F 19.4 °F 52% 29.40 in 10.0 mi West 5.8 mph - N/A   Clear
6:54 AM 35.6 °F 28.6 °F 19.4 °F 52% 29.40 in 10.0 mi West 9.2 mph - N/A   Clear
7:34 AM 33.8 °F 27.7 °F 19.4 °F 56% 29.42 in 10.0 mi West 6.9 mph - N/A   Scattered Clouds
7:54 AM 35.6 °F 31.7 °F 21.2 °F 56% 29.42 in 10.0 mi West 4.6 mph - N/A   Scattered Clouds
8:14 AM 33.8 °F 29.6 °F 21.2 °F 60% 29.44 in 10.0 mi West 4.6 mph - N/A   Clear
8:34 AM 33.8 °F 28.6 °F 21.2 °F 60% 29.43 in 10.0 mi West 5.8 mph - N/A   Clear
8:54 AM 35.6 °F 28.0 °F 23.0 °F 60% 29.43 in 10.0 mi West 10.4 mph - N/A   Clear
9:14 AM 37.4 °F 31.4 °F 24.8 °F 60% 29.44 in 10.0 mi West 8.1 mph - N/A   Clear
9:34 AM 39.2 °F 32.0 °F 26.6 °F 61% 29.45 in 10.0 mi WNW 11.5 mph - N/A   Clear
9:54 AM 41.0 °F 33.5 °F 26.6 °F 57% 29.45 in 10.0 mi WNW 13.8 mph 18.4 mph N/A   Clear
10:34 AM 41.0 °F 34.7 °F 26.6 °F 57% 29.45 in 10.0 mi WNW 10.4 mph 19.6 mph N/A   Clear
10:54 AM 42.8 °F 37.0 °F 26.6 °F 53% 29.45 in 10.0 mi NW 10.4 mph 18.4 mph N/A   Clear
11:14 AM 46.4 °F 40.7 °F 26.6 °F 46% 29.45 in 10.0 mi WNW 12.7 mph - N/A   Clear
11:34 AM 48.2 °F - 24.8 °F 40% 29.44 in 10.0 mi NW 11.5 mph 17.3 mph N/A   Clear
11:54 AM 48.2 °F - 21.2 °F 34% 29.45 in 10.0 mi NNW 13.8 mph 25.3 mph N/A   Clear
12:14 PM 48.2 °F - 21.2 °F 34% 29.45 in 10.0 mi WNW 17.3 mph 23.0 mph N/A   Clear
12:34 PM 50.0 °F - 17.6 °F 28% - 10.0 mi NNW 17.3 mph 29.9 mph N/A   Clear
12:54 PM 51.8 °F - 15.8 °F 24% 29.45 in 10.0 mi NW 20.7 mph 27.6 mph N/A   Clear
1:14 PM 51.8 °F - 14.0 °F 22% 29.45 in 10.0 mi WNW 15.0 mph 26.5 mph N/A   Clear
1:34 PM 51.8 °F - 12.2 °F 21% 29.46 in 10.0 mi NW 16.1 mph 23.0 mph N/A   Clear
1:54 PM 51.8 °F - 10.4 °F 19% 29.46 in 10.0 mi NW 18.4 mph 24.2 mph N/A   Clear
2:14 PM 51.8 °F - 10.4 °F 19% 29.47 in 10.0 mi NW 15.0 mph 24.2 mph N/A   Clear
2:34 PM 51.8 °F - 10.4 °F 19% 29.46 in 10.0 mi WNW 17.3 mph 26.5 mph N/A   Scattered Clouds
2:53 PM 51.8 °F - 12.2 °F 21% 29.47 in 10.0 mi WNW 18.4 mph 26.5 mph N/A   Scattered Clouds
3:14 PM 50.0 °F - 12.2 °F 22% 29.48 in 10.0 mi WNW 16.1 mph 28.8 mph N/A   Clear
3:34 PM 51.8 °F - 12.2 °F 21% 29.48 in 10.0 mi NW 16.1 mph 25.3 mph N/A   Scattered Clouds
3:54 PM 51.8 °F - 14.0 °F 22% 29.48 in 10.0 mi WNW 16.1 mph 23.0 mph N/A   Scattered Clouds
4:14 PM 50.0 °F - 15.8 °F 26% 29.48 in 10.0 mi WNW 10.4 mph 16.1 mph N/A   Clear
4:34 PM 48.2 °F - 15.8 °F 27% 29.49 in 10.0 mi WNW 9.2 mph - N/A   Clear
4:54 PM 48.2 °F - 15.8 °F 27% 29.50 in 10.0 mi WNW 9.2 mph - N/A   Clear
5:14 PM 46.4 °F 42.9 °F 17.6 °F 32% 29.51 in 10.0 mi WNW 6.9 mph - N/A   Clear
5:34 PM 44.6 °F 40.7 °F 17.6 °F 34% 29.52 in 10.0 mi NW 6.9 mph - N/A   Clear
5:54 PM 44.6 °F 41.4 °F 17.6 °F 34% 29.53 in 10.0 mi WNW 5.8 mph - N/A   Clear
6:14 PM 42.8 °F 39.3 °F 17.6 °F 36% 29.54 in 10.0 mi West 5.8 mph - N/A   Clear
6:34 PM 42.8 °F 41.1 °F 17.6 °F 36% 29.54 in 10.0 mi West 3.5 mph - N/A   Clear
6:54 PM 42.8 °F 39.3 °F 17.6 °F 36% 29.55 in 10.0 mi West 5.8 mph - N/A   Clear
7:14 PM 41.0 °F 39.0 °F 15.8 °F 36% 29.55 in 10.0 mi West 3.5 mph - N/A   Clear
7:34 PM 39.2 °F - 15.8 °F 39% 29.56 in 10.0 mi Calm Calm - N/A   Clear
7:54 PM 37.4 °F - 17.6 °F 45% 29.56 in 10.0 mi Calm Calm - N/A   Clear
8:14 PM 33.8 °F 30.8 °F 15.8 °F 48% 29.54 in 10.0 mi ENE 3.5 mph - N/A   Clear
8:34 PM 35.6 °F - 15.8 °F 44% 29.53 in 10.0 mi Calm Calm - N/A   Clear
8:54 PM 32.0 °F 26.4 °F 17.6 °F 55% 29.53 in 10.0 mi South 5.8 mph - N/A   Clear
9:14 PM 33.8 °F 27.0 °F 17.6 °F 52% 29.54 in 10.0 mi SSW 8.1 mph - N/A   Clear
9:34 PM 35.6 °F 29.2 °F 19.4 °F 52% 29.55 in 10.0 mi SSW 8.1 mph - N/A   Clear
9:54 PM 33.8 °F 29.6 °F 19.4 °F 56% 29.55 in 10.0 mi SSW 4.6 mph - N/A   Scattered Clouds
10:14 PM 35.6 °F 30.7 °F 17.6 °F 48% 29.54 in 10.0 mi SSW 5.8 mph - N/A   Scattered Clouds
10:34 PM 35.6 °F 29.9 °F 17.6 °F 48% 29.55 in 10.0 mi SW 6.9 mph - N/A   Mostly Cloudy
10:54 PM 35.6 °F 30.7 °F 17.6 °F 48% 29.54 in 10.0 mi SSW 5.8 mph - N/A   Mostly Cloudy
11:14 PM 35.6 °F 30.7 °F 17.6 °F 48% 29.54 in 10.0 mi SSW 5.8 mph - N/A   Overcast
11:34 PM 35.6 °F 29.9 °F 17.6 °F 48% 29.54 in 10.0 mi SSW 6.9 mph - N/A   Overcast
11:54 PM 35.6 °F 30.7 °F 17.6 °F 48% 29.53 in 10.0 mi SSW 5.8 mph - N/A   Overcast